SCP
0 0 0 0 0 0 0 0 0 0 0 0 0 0 0 0 0 0 0 0 0 0 0 0 0 0 0 0 0 -0 0 0 0 0 0 0 0 -0 0 -0 0 0 0 0 0 0 0 0 -0 0 -0 0 -0 0
0 0 0 0 0 0 0 0 0 0 0 0 0 0 0 0 0 0 0 0 0 0 0 0 -0 -0 -0 -0 0 0 0 0 0 0 0 0 -0 0 0 -0 0 0 0 0 0 0 0 0 0 0 -0 -0 0 0
0 0 0 0 0 0 0 0 0 0 0 0 0 0 0 0 0 0 0 0 0 0 0 0 0 0 0 0 0 0 0 0 0 0 0 -0 -0 0 0 0 0 0 0 0 -0 0 -0 -0 0 0 -0 -0 0 0
0 0 0 0 0 0 0 0 0 0 0 0 0 0 0 0 0 0 0 0 0 0 0 0 0 0 0 0 0 -0 0 0 0 0 0 0 0 0 -0 0 0 0 0 0 0 0 -0 0 0 -0 -0 0 0 0
0 0 0 0 0 0 0 0 0 0 0 0 0 0 0 0 0 0 0 0 0 0 0 0 0 0 0 0 0 0 -0 0 0 0 0 0 0 0 -0 -0 0 0 0 0 0 0 0 0 -0 -0 -0 -0 -0 0
0 0 0 0 0 0 0 0 0 0 0 0 0 0 0 0 0 0 0 0 0 0 0 0 0 0 0 0 0 0 0 0 0 0 0 0 0 0 0 -0 -0 0 0 0 0 0 0 -0 -0 -0 -0 -0 0 0
0 0 0 0 0 0 0 0 0 0 0 0 0 0 0 0 0 0 0 0 0 0 0 0 0 0 0 0 0 0 0 0 0 0 0 0 0 0 0 0 -0 -0 -0 -0 0 0 0 -0 -0 -0 0 0 0 -0
0 0 0 0 0 0 0 0 0 0 0 0 0 0 0 0 0 0 0 0 0 0 0 0 0 0 0 0 0 0 0 0 0 0 0 0 0 0 0 0 -0 -0 -0 -0 -0 -0 0 -0 -0 0 0 0 0 0
0 0 0 0 0 0 0 0 0 0 0 0 0 0 0 0 0 0 0 0 0 0 0 0 0 0 0 0 0 0 0 0 0 0 0 0 0 0 -0 0 0 -0 0 0 0 0 0 0 -0 0 0 0 0 0
0 0 0 0 0 0 0 0 0 0 0 0 0 0 0 0 0 0 0 0 0 0 0 0 0 0 0 0 0 0 0 0 0 0 0 0 -0 -0 -0 0 0 0 0 0 0 0 0 -0 -0 0 0 0 0 0
0 0 0 0 0 0 0 0 0 0 0 0 0 0 0 0 0 0 0 0 0 0 0 0 0 0 0 0 -0 0 0 0 0 0 0 0 -0 -0 -0 0 -0 0 0 0 0 0 0 0 0 0 0 0 0 0
0 0 0 0 0 0 0 0 0 0 0 0 0 0 0 0 0 0 0 0 0 0 0 0 0 0 0 0 0 0 -0 0 -0 0 0 -0 0 0 0 0 -0 0 0 0 0 0 -0 0 0 0 0 0 0 -0
0 0 0 0 0 0 0 0 0 0 0 0 0 0 0 0 0 0 0 0 0 0 0 0 0 0 0 0 0 0 0 0 0 -0 -0 -0 0 0 0 0 -0 0 0 0 0 0 0 -0 -0 -0 0 -0 -0 -0
0 0 0 0 0 0 0 0 0 0 0 0 0 0 0 0 0 0 0 0 0 -0 0 0 0 0 0 0 0 0 0 0 0 -0 -0 -0 0 0 0 0 -0 0 0 0 0 0 -0 -0 0 0 0 0 0 0
0 0 0 0 0 0 0 0 0 0 0 0 0 0 0 0 0 0 0 0 -0 -0 0 0 0 -0 0 0 0 0 0 0 0 0 0 0 -0 0 0 0 -0 0 0 0 -0 0 -0 -0 -0 0 0 0 0 0
0 0 0 0 0 0 -0 0 0 0 0 0 0 0 0 0 0 0 0 -0 0 0 0 0 0 0 -0 0 0 0 -0 0 0 0 0 -0 -0 0 0 -0 -0 -0 0 0 -0 -0 0 0 -0 0 0 0 0 0
0 0 0 0 0 0 0 0 0 0 0 0 0 0 0 0 0 0 0 0 0 0 -0 0 0 0 0 0 0 0 0 0 0 -0 0 0 0 0 0 0 -0 -0 0 0 0 -0 0 0 -0 0 0 0 0 0
0 0 0 0 0 0 0 0 0 0 0 0 0 0 0 0 0 0 0 0 0 0 0 0 0 0 0 0 0 0 0 0 0 -0 -0 -0 0 0 0 0 -0 -0 0 0 -0 -0 -0 0 -0 -0 -0 0 0 0
0 0 -0 0 0 0 0 0 0 0 0 -0 0 0 0 0 0 0 0 0 0 0 0 0 0 0 0 0 0 0 0 -0 0 0 0 -0 0 0 0 0 0 -0 0 -0 -0 -0 -0 -0 -0 -0 -0 -0 0 0
-0 0 0 0 0 0 0 0 0 -0 0 0 0 0 0 0 0 -0 -0 0 0 -0 0 0 0 0 -0 -0 -0 0 0 0 -0 0 0 0 0 0 0 0 0 0 0 -0 -0 -0 -0 -0 0 0 0 0 -0 0
0 0 0 0 0 -0 -0 -0 -0 0 0 0 0 0 0 0 0 -0 0 0 0 0 0 0 0 0 0 -0 -0 -0 -0 0 0 0 0 0 -0 0 0 0 -0 -0 -0 -0 -0 -0 -0 -0 -0 -0 -0 -0 0 0
0 0 0 0 0 0 0 0 -0 0 0 0 0 0 0 -0 -0 -0 -0 -0 0 0 0 0 0 0 0 0 -0 0 0 0 0 0 0 0 0 0 0 0 -0 -0 -0 -0 -0 -0 -0 -0 -0 -0 -0 -0 0 0
0 0 0 0 0 0 0 0 0 0 0 0 0 0 0 -0 0 0 0 0 -0 0 0 0 0 0 0 0 0 0 0 0 0 0 0 0 0 0 0 0 0 -0 -0 -0 -0 -0 -0 -0 -0 -0 -0 -0 -0 -0
0 0 0 0 0 0 0 0 0 0 0 0 -0 0 0 0 0 0 -0 -0 0 0 -0 0 0 0 0 0 0 0 0 -0 0 0 0 0 0 0 0 0 -0 0 -0 -0 -0 -0 -0 -0 -0 -0 -0 -0 -0 -0
0 0 0 0 0 0 0 0 0 -0 -0 -0 -0 0 -0 0 0 0 0 0 -0 -0 -0 0 0 0 0 0 0 0 0 0 0 0 0 0 0 0 0 0 0 0 0 -0 -0 -0 -0 -0 -0 -0 -0 -0 -0 -0
0 0 0 0 0 0 0 0 0 0 -0 -0 0 0 0 0 0 0 0 0 0 -0 -0 -0 0 0 0 0 0 0 0 0 0 0 0 0 0 0 0 0 0 0 0 0 -0 -0 -0 -0 -0 -0 -0 -0 -0 -0
0 0 0 0 0 0 0 0 0 0 0 0 -0 -0 -0 0 0 0 0 0 0 0 0 0 0 -0 0 0 0 0 0 0 0 0 0 0 0 0 0 0 0 0 0 0 0 -0 -0 -0 -0 -0 -0 -0 -0 -0
0 0 0 0 0 0 0 0 0 0 0 -0 -0 0 0 0 0 0 0 0 0 0 -0 -0 0 -0 -0 0 0 0 0 0 0 0 0 0 0 0 0 0 0 0 0 0 0 0 0 0 0 -0 -0 -0 -0 -0
0 0 0 0 0 0 0 0 0 0 0 0 -0 0 0 0 0 0 0 -0 -0 -0 -0 0 0 -0 -0 -0 -0 0 0 0 0 -0 0 0 0 0 0 0 0 0 0 0 0 0 0 0 0 0 0 0 0 0
0 0 0 0 0 0 0 0 0 0 0 0 0 0 0 0 0 0 0 -0 -0 0 0 0 0 0 -0 -0 -0 -0 0 0 0 0 0 0 0 0 0 0 0 0 0 0 0 0 0 0 0 0 0 0 0 0
0 0 0 0 0 0 0 0 0 0 0 0 0 0 0 0 0 0 0 0 0 0 0 0 0 0 0 -0 -0 -0 0 0 0 0 0 0 0 0 0 0 0 0 0 0 0 0 0 0 0 0 0 0 0 0
0 0 0 0 0 0 0 0 0 0 0 0 0 0 0 0 0 0 0 0 0 0 0 0 0 0 0 0 0 0 0 0 0 0 0 0 0 0 0 0 0 0 0 0 0 0 0 0 0 0 0 0 0 0
0 0 0 0 0 0 0 0 0 0 0 0 0 0 0 0 0 0 0 0 0 0 0 0 0 0 0 0 0 0 0 0 0 0 0 0 0 0 0 0 0 0 0 0 0 0 0 0 0 0 0 0 0 0
Wind_Speed_500mb
43 46 47 50 54 57 58 57 55 51 47 43 39 35 30 23 17 19 20 20 24 24 50 44 40 39 17 17 7 19 21 1 11 8 6 6 6 9 7 14 8 6 8 2 4 10 5 32 31 9 21 53 46 45
43 45 48 50 57 57 56 54 51 48 45 42 39 34 29 25 16 17 24 16 25 37 43 55 58 57 61 58 44 11 11 14 10 6 4 6 5 7 12 7 11 7 6 7 8 11 30 43 35 55 60 56 47 46
43 44 48 52 55 54 53 51 48 46 45 42 40 35 27 23 24 19 30 31 31 36 50 26 9 11 14 17 27 18 16 14 10 10 8 5 10 6 6 10 14 14 19 7 21 16 31 48 53 42 51 57 52 40
39 44 46 52 54 54 53 50 45 45 46 44 42 39 30 28 29 27 30 25 27 18 12 10 14 22 25 30 38 47 30 10 15 9 9 7 8 5 11 18 23 20 17 18 27 28 53 26 51 55 55 31 31 38
39 43 47 54 55 53 52 49 45 44 45 45 42 40 37 36 36 34 33 33 34 25 11 26 52 10 12 17 33 37 46 35 12 6 7 6 9 9 15 15 17 8 9 5 19 48 35 45 60 58 35 37 35 39
40 42 47 54 55 52 50 49 46 44 43 43 42 41 43 40 28 14 10 12 12 34 10 7 16 15 12 13 19 31 35 36 19 7 7 10 13 12 7 13 18 17 16 26 31 44 53 53 59 34 46 56 50 39
43 42 48 52 53 50 50 49 47 45 42 41 43 46 38 29 25 15 10 8 9 21 8 10 10 9 12 12 9 14 25 20 19 9 13 11 19 16 6 17 30 25 28 37 33 46 48 45 45 53 62 63 47 19
43 45 48 51 50 48 47 49 48 47 42 43 44 39 27 18 19 24 24 29 17 16 10 6 8 15 11 11 11 17 14 20 16 9 9 10 8 12 10 23 19 23 31 34 38 39 38 48 43 52 64 68 53 23
42 46 47 48 47 45 45 46 47 49 44 44 39 27 16 7 7 7 13 15 30 25 8 9 5 6 3 11 5 10 12 7 10 7 8 9 7 11 20 20 24 25 28 36 42 40 40 46 48 52 62 62 54 58
42 43 44 42 42 42 42 42 45 49 46 39 22 5 7 8 13 15 13 11 18 22 17 9 19 12 10 9 6 7 9 2 5 11 10 7 10 31 33 30 16 17 25 31 43 50 51 52 48 53 58 64 66 59
40 37 38 38 40 41 40 39 42 46 44 25 14 8 20 15 8 10 10 13 17 9 16 16 34 21 14 10 8 4 3 6 6 5 5 4 8 4 3 1 5 15 23 28 32 37 39 35 39 45 58 59 56 55
34 32 33 34 36 39 38 32 36 33 26 30 31 37 20 5 14 10 9 9 12 9 13 13 12 20 9 14 10 3 5 7 7 2 6 5 2 5 4 1 5 12 21 29 33 36 37 33 36 39 44 52 52 44
29 28 28 29 32 31 31 35 35 36 38 18 6 8 7 7 7 11 9 8 6 7 8 6 4 8 12 15 9 5 7 5 2 5 5 6 5 5 6 2 5 11 18 27 31 33 35 34 30 36 41 43 43 43
25 25 25 27 27 25 34 37 37 35 15 7 6 10 9 7 8 7 16 14 19 21 24 18 13 8 12 9 3 7 5 2 4 4 5 5 5 7 9 5 4 12 17 22 29 32 34 35 33 33 34 38 41 45
21 21 20 18 23 28 32 35 33 19 7 8 8 9 6 15 26 25 23 25 29 24 29 22 16 14 8 6 3 2 7 4 6 4 6 13 4 8 10 4 4 10 14 21 28 28 32 32 31 27 30 32 35 39
15 16 13 21 26 29 31 32 16 6 4 5 8 12 19 28 30 35 27 16 17 20 24 24 9 6 5 3 3 7 4 6 3 5 16 13 7 8 8 4 2 4 8 12 21 24 26 30 31 28 26 28 29 29
9 6 18 22 24 27 27 12 9 4 4 7 8 18 26 29 35 32 32 30 26 24 9 8 5 6 3 3 3 2 4 3 18 23 15 12 7 9 10 5 6 1 6 11 15 19 21 23 26 28 31 28 24 25
4 10 14 17 22 19 7 7 5 3 5 11 18 29 34 32 35 36 31 24 24 19 16 8 13 8 3 3 1 8 13 16 26 28 26 17 5 8 13 10 9 7 2 9 12 15 17 21 25 27 26 24 21 21
3 6 8 14 19 9 5 4 4 7 9 21 19 27 30 34 33 32 28 26 21 18 18 11 9 5 8 15 23 34 33 27 31 42 38 28 15 7 13 15 13 11 4 6 8 13 18 21 22 22 21 23 26 25
2 4 13 17 11 1 2 2 5 9 10 16 28 30 41 28 26 21 19 19 17 11 9 5 10 19 19 26 31 33 31 32 30 37 30 15 13 10 12 16 17 16 13 8 7 11 13 15 19 23 24 25 24 27
3 10 15 7 4 3 1 6 7 9 16 15 27 37 30 25 20 12 11 14 3 12 10 19 33 30 33 31 28 32 33 29 30 31 33 28 27 25 12 17 23 23 20 16 10 7 10 12 15 17 22 26 31 34
4 8 7 8 3 1 3 4 12 19 10 19 24 29 21 22 21 27 22 20 12 19 27 40 43 40 36 37 38 32 33 33 28 27 24 33 30 23 15 20 28 27 25 24 19 16 14 14 16 16 18 23 26 28
4 9 4 3 2 1 5 9 7 9 7 19 23 11 9 11 19 25 10 12 12 33 37 43 39 33 32 32 35 34 35 38 31 26 25 23 24 20 18 15 26 29 27 26 26 26 23 22 22 19 20 22 27 31
11 5 4 2 1 3 7 5 6 9 9 13 11 9 10 10 18 9 8 14 30 39 45 54 53 52 46 43 48 51 53 47 39 34 27 28 19 17 16 21 22 30 27 28 31 31 30 28 30 27 25 26 26 28
4 3 4 3 3 2 4 5 8 5 6 16 9 8 10 12 5 7 9 27 44 48 59 58 55 49 47 48 52 58 54 45 42 42 25 20 23 17 14 20 22 30 32 36 37 36 34 32 29 29 29 29 31 32
5 7 8 7 5 3 4 4 4 9 8 6 5 8 8 6 6 7 14 32 38 49 53 52 49 48 45 48 52 60 57 42 32 28 20 22 15 14 13 21 24 32 36 37 39 41 39 35 33 33 32 34 31 31
7 8 9 8 3 3 5 5 7 3 4 4 7 9 6 5 6 7 21 27 40 41 42 40 38 33 36 44 51 62 54 37 29 21 18 14 7 13 10 10 22 27 33 36 38 41 43 41 39 36 34 32 31 28
5 9 9 12 7 4 3 3 4 3 2 4 9 5 3 4 5 12 15 28 33 36 36 38 40 35 37 44 53 66 74 61 47 26 6 7 16 6 17 21 19 22 25 32 37 38 39 41 42 41 39 38 35 32
9 12 10 9 7 7 10 7 5 4 2 4 5 4 5 4 5 10 16 23 27 26 32 38 43 45 46 42 50 67 72 81 80 73 66 59 49 36 15 25 24 10 19 28 37 35 38 40 43 42 41 38 35 37
13 17 9 9 7 9 7 11 4 3 3 1 6 10 10 9 9 13 14 18 22 26 28 30 34 39 44 49 48 53 67 71 76 73 67 60 51 42 35 23 20 21 19 22 23 28 36 42 46 46 41 39 38 39
16 14 8 8 6 5 5 8 9 9 7 6 10 12 14 14 9 12 22 19 17 18 23 28 30 34 37 41 46 52 57 67 65 62 65 60 49 41 42 30 33 30 15 16 18 23 35 39 42 46 49 46 45 43
16 13 11 7 6 6 4 4 10 13 14 12 10 13 13 11 6 3 20 20 19 19 22 23 27 30 32 30 31 35 42 46 55 62 66 64 65 52 35 33 27 21 19 19 16 16 15 22 31 38 48 44 44 44
13 16 11 4 4 6 8 5 7 8 7 8 7 8 8 6 6 5 10 19 21 20 17 17 18 23 27 33 35 34 37 39 43 46 49 53 57 60 60 48 33 24 18 17 16 15 11 10 14 19 23 31 44 46
Wind_Direction_500mb
318 322 325 327 328 329 328 329 330 330 330 332 331 324 320 317 310 258 262 265 256 267 282 277 277 270 247 240 262 305 321 142 292 350 327 331 297 334 292 310 301 290 317 338 264 259 260 341 327 227 303 304 298 291
315 318 323 327 329 328 329 330 330 329 328 329 327 322 322 318 304 268 271 254 264 263 262 287 281 267 258 256 259 245 273 324 282 306 336 301 287 314 324 295 302 294 354 302 224 268 289 291 288 287 289 268 272 276
314 317 322 326 328 330 330 329 329 329 329 328 328 322 318 319 317 281 266 266 283 285 290 276 273 264 232 207 220 223 244 218 233 252 304 285 274 229 279 295 304 305 305 270 307 319 303 320 302 289 294 265 267 267
311 318 321 323 325 328 328 328 329 329 329 327 323 323 322 311 304 285 272 263 252 272 280 285 291 282 271 255 228 228 238 231 250 236 253 261 268 229 278 280 289 274 302 321 296 314 324 311 303 304 301 264 275 275
313 317 319 321 324 327 328 326 328 329 327 324 322 321 319 309 299 291 276 259 241 220 288 296 305 263 221 218 229 232 231 234 264 235 232 248 267 275 260 277 263 244 308 280 310 315 315 312 311 305 315 304 281 273
312 315 318 320 323 325 325 325 325 326 324 322 318 317 314 307 298 293 300 221 235 222 267 288 306 277 227 247 247 222 221 226 227 245 242 249 251 259 284 289 297 306 298 317 308 315 317 308 320 321 318 308 297 276
310 314 318 319 321 323 324 324 324 325 325 321 318 314 309 294 264 206 240 235 252 188 246 279 278 223 222 236 186 187 200 212 219 232 226 230 246 205 254 275 299 324 333 327 335 328 324 332 337 341 335 340 344 321
308 314 317 319 320 321 322 322 323 325 327 323 319 311 303 294 244 255 249 237 202 201 234 262 260 259 194 216 198 184 188 206 221 238 246 241 219 227 258 255 302 335 337 338 346 340 346 341 348 343 347 356 3 344
306 312 318 319 320 320 321 322 322 324 327 327 320 311 290 253 232 254 226 231 230 221 251 230 245 289 221 252 212 194 205 209 216 226 238 281 245 229 254 299 322 350 343 338 345 349 356 352 350 344 345 358 2 20
307 313 317 319 320 321 322 323 323 325 332 333 328 288 253 232 249 277 263 221 211 202 235 244 233 244 277 266 203 220 174 243 244 212 211 240 251 259 276 286 301 343 342 347 350 351 353 352 345 346 354 7 15 28
306 314 314 318 320 320 324 327 328 334 342 357 336 283 276 270 278 231 250 217 190 221 214 223 231 238 240 247 269 256 148 223 262 134 263 218 274 331 226 168 46 351 350 354 353 352 353 353 351 349 357 8 20 34
306 312 313 318 319 320 325 331 337 343 327 310 294 290 295 260 227 236 226 203 226 245 186 230 200 202 232 220 233 179 225 221 257 41 263 261 292 291 241 180 50 7 1 360 3 358 358 4 360 2 9 12 20 34
305 310 316 317 315 321 334 335 333 332 332 311 280 264 243 225 244 234 223 225 237 229 199 189 190 210 206 217 208 206 231 234 331 249 261 276 41 196 193 197 31 18 12 5 3 7 9 9 17 14 18 20 31 36
303 313 315 312 312 319 327 328 331 336 332 287 278 273 238 203 241 287 317 328 320 347 318 280 222 189 214 188 204 223 178 206 240 243 251 6 348 206 180 155 56 25 12 10 10 11 16 17 15 22 27 26 36 45
306 313 318 320 324 327 324 318 322 322 275 270 257 256 251 333 317 321 347 346 337 337 324 321 294 189 205 184 211 58 174 235 233 256 -0 12 323 198 173 177 24 20 15 13 13 16 15 17 24 27 31 28 40 52
311 317 320 325 328 328 323 320 325 294 263 277 265 290 313 320 328 320 330 331 321 319 299 276 271 239 211 117 159 200 190 215 328 303 342 343 309 253 160 182 106 48 52 33 18 21 21 24 24 28 34 36 36 48
320 320 326 330 337 338 336 7 33 35 295 262 270 294 282 292 306 313 320 318 322 304 277 274 299 320 38 69 248 244 244 29 331 344 329 335 269 247 237 197 233 283 64 67 44 25 25 32 41 39 35 32 38 46
343 322 332 341 350 358 3 27 4 292 270 281 301 320 317 306 297 302 308 312 321 314 315 333 311 271 260 262 336 9 19 5 347 340 330 332 322 227 223 220 217 238 87 78 59 50 40 41 40 39 40 36 42 53
333 349 343 349 354 9 8 355 351 299 286 314 306 322 319 314 299 288 290 301 293 283 298 289 264 315 357 21 355 342 348 355 322 317 312 316 294 262 220 213 203 216 218 97 50 45 50 60 63 57 49 55 56 59
106 343 326 328 333 81 329 301 301 280 285 315 312 329 328 313 316 305 296 294 271 236 234 288 15 353 342 340 325 313 317 321 318 312 327 324 330 313 216 201 197 198 188 166 117 77 60 54 52 66 69 70 75 72
163 320 333 70 81 101 282 314 279 288 306 304 322 329 328 327 338 15 3 336 58 28 11 6 346 331 327 330 334 327 319 317 316 314 307 304 295 311 275 194 191 194 187 187 171 144 83 77 70 70 78 78 77 81
310 4 88 52 80 3 283 288 294 304 292 299 321 339 336 337 346 13 17 50 57 23 7 349 340 334 332 337 339 331 320 320 320 319 305 304 291 284 266 211 199 201 196 185 177 165 147 130 118 111 100 91 90 92
80 107 82 54 57 315 298 321 293 328 304 325 327 335 352 0 336 359 75 41 22 1 355 356 355 358 352 343 341 341 342 334 323 316 313 306 293 282 263 224 217 205 201 186 173 166 158 156 141 132 124 107 100 95
119 104 137 155 0 327 322 303 310 304 299 329 339 353 347 336 327 32 61 25 359 1 -0 3 5 0 4 3 358 352 348 341 327 317 317 316 301 287 258 220 217 208 197 187 174 167 161 155 157 147 147 139 132 126
155 155 160 233 202 297 262 328 338 319 321 347 337 11 354 328 11 59 23 359 354 354 357 359 360 360 356 350 352 358 358 346 335 325 334 336 323 294 250 208 212 200 190 181 178 172 166 162 159 161 158 154 149 142
182 178 175 173 157 241 350 309 315 334 337 328 358 354 2 344 52 39 2 345 347 351 354 355 349 347 357 4 352 355 357 353 349 345 356 342 326 273 252 215 197 196 194 189 183 177 174 169 166 163 162 167 163 149
166 187 182 196 200 251 274 278 301 280 288 315 7 341 18 47 62 31 349 351 348 352 356 357 354 358 1 9 9 16 17 17 19 16 33 8 346 208 160 239 227 203 190 186 187 184 179 175 171 168 168 169 168 164
187 175 171 170 180 190 242 249 248 243 264 348 315 50 57 43 22 342 335 340 354 357 2 7 19 25 20 17 15 23 28 34 49 41 313 71 66 64 182 158 184 207 196 195 187 187 185 183 181 177 178 176 174 175
186 177 174 184 172 187 209 225 243 223 263 291 331 75 115 99 345 337 342 352 357 3 9 11 15 22 27 27 28 29 30 29 31 32 29 20 25 30 83 145 137 128 184 188 180 185 192 188 186 184 181 177 176 177
176 172 172 176 187 204 198 204 239 233 238 152 121 123 122 122 60 25 12 9 9 9 9 11 13 17 19 23 20 26 34 35 32 26 20 14 8 18 23 49 94 128 158 179 174 187 190 185 186 181 174 174 176 178
156 170 172 188 215 203 231 218 224 221 216 190 176 174 161 162 151 35 29 21 13 9 17 21 20 19 20 17 17 20 26 34 35 34 30 28 20 23 28 30 51 70 100 156 163 168 177 178 184 193 190 186 186 185
173 182 179 184 196 169 252 220 192 195 189 182 168 161 156 170 139 69 8 26 27 25 24 23 21 19 20 21 22 25 29 25 28 28 30 34 33 30 34 36 31 36 61 90 114 136 157 192 201 203 202 193 189 183
165 173 195 213 217 194 176 228 215 185 172 179 146 144 129 115 101 78 18 28 28 23 22 20 19 24 29 29 30 30 31 31 34 34 31 33 36 36 38 42 46 47 55 66 84 112 143 175 193 208 227 221 203 182
Wind_Speed_850mb
43 46 47 50 54 57 58 57 55 51 47 43 39 35 30 23 17 19 20 20 24 24 50 44 40 39 17 17 7 19 21 1 11 8 6 6 6 9 7 14 8 6 8 2 4 10 5 32 31 9 21 53 46 45
43 45 48 50 57 57 56 54 51 48 45 42 39 34 29 25 16 17 24 16 25 37 43 55 58 57 61 58 44 11 11 14 10 6 4 6 5 7 12 7 11 7 6 7 8 11 30 43 35 55 60 56 47 46
43 44 48 52 55 54 53 51 48 46 45 42 40 35 27 23 24 19 30 31 31 36 50 26 9 11 14 17 27 18 16 14 10 10 8 5 10 6 6 10 14 14 19 7 21 16 31 48 53 42 51 57 52 40
39 44 46 52 54 54 53 50 45 45 46 44 42 39 30 28 29 27 30 25 27 18 12 10 14 22 25 30 38 47 30 10 15 9 9 7 8 5 11 18 23 20 17 18 27 28 53 26 51 55 55 31 31 38
39 43 47 54 55 53 52 49 45 44 45 45 42 40 37 36 36 34 33 33 34 25 11 26 52 10 12 17 33 37 46 35 12 6 7 6 9 9 15 15 17 8 9 5 19 48 35 45 60 58 35 37 35 39
40 42 47 54 55 52 50 49 46 44 43 43 42 41 43 40 28 14 10 12 12 34 10 7 16 15 12 13 19 31 35 36 19 7 7 10 13 12 7 13 18 17 16 26 31 44 53 53 59 34 46 56 50 39
43 42 48 52 53 50 50 49 47 45 42 41 43 46 38 29 25 15 10 8 9 21 8 10 10 9 12 12 9 14 25 20 19 9 13 11 19 16 6 17 30 25 28 37 33 46 48 45 45 53 62 63 47 19
43 45 48 51 50 48 47 49 48 47 42 43 44 39 27 18 19 24 24 29 17 16 10 6 8 15 11 11 11 17 14 20 16 9 9 10 8 12 10 23 19 23 31 34 38 39 38 48 43 52 64 68 53 23
42 46 47 48 47 45 45 46 47 49 44 44 39 27 16 7 7 7 13 15 30 25 8 9 5 6 3 11 5 10 12 7 10 7 8 9 7 11 20 20 24 25 28 36 42 40 40 46 48 52 62 62 54 58
42 43 44 42 42 42 42 42 45 49 46 39 22 5 7 8 13 15 13 11 18 22 17 9 19 12 10 9 6 7 9 2 5 11 10 7 10 31 33 30 16 17 25 31 43 50 51 52 48 53 58 64 66 59
40 37 38 38 40 41 40 39 42 46 44 25 14 8 20 15 8 10 10 13 17 9 16 16 34 21 14 10 8 4 3 6 6 5 5 4 8 4 3 1 5 15 23 28 32 37 39 35 39 45 58 59 56 55
34 32 33 34 36 39 38 32 36 33 26 30 31 37 20 5 14 10 9 9 12 9 13 13 12 20 9 14 10 3 5 7 7 2 6 5 2 5 4 1 5 12 21 29 33 36 37 33 36 39 44 52 52 44
29 28 28 29 32 31 31 35 35 36 38 18 6 8 7 7 7 11 9 8 6 7 8 6 4 8 12 15 9 5 7 5 2 5 5 6 5 5 6 2 5 11 18 27 31 33 35 34 30 36 41 43 43 43
25 25 25 27 27 25 34 37 37 35 15 7 6 10 9 7 8 7 16 14 19 21 24 18 13 8 12 9 3 7 5 2 4 4 5 5 5 7 9 5 4 12 17 22 29 32 34 35 33 33 34 38 41 45
21 21 20 18 23 28 32 35 33 19 7 8 8 9 6 15 26 25 23 25 29 24 29 22 16 14 8 6 3 2 7 4 6 4 6 13 4 8 10 4 4 10 14 21 28 28 32 32 31 27 30 32 35 39
15 16 13 21 26 29 31 32 16 6 4 5 8 12 19 28 30 35 27 16 17 20 24 24 9 6 5 3 3 7 4 6 3 5 16 13 7 8 8 4 2 4 8 12 21 24 26 30 31 28 26 28 29 29
9 6 18 22 24 27 27 12 9 4 4 7 8 18 26 29 35 32 32 30 26 24 9 8 5 6 3 3 3 2 4 3 18 23 15 12 7 9 10 5 6 1 6 11 15 19 21 23 26 28 31 28 24 25
4 10 14 17 22 19 7 7 5 3 5 11 18 29 34 32 35 36 31 24 24 19 16 8 13 8 3 3 1 8 13 16 26 28 26 17 5 8 13 10 9 7 2 9 12 15 17 21 25 27 26 24 21 21
3 6 8 14 19 9 5 4 4 7 9 21 19 27 30 34 33 32 28 26 21 18 18 11 9 5 8 15 23 34 33 27 31 42 38 28 15 7 13 15 13 11 4 6 8 13 18 21 22 22 21 23 26 25
2 4 13 17 11 1 2 2 5 9 10 16 28 30 41 28 26 21 19 19 17 11 9 5 10 19 19 26 31 33 31 32 30 37 30 15 13 10 12 16 17 16 13 8 7 11 13 15 19 23 24 25 24 27
3 10 15 7 4 3 1 6 7 9 16 15 27 37 30 25 20 12 11 14 3 12 10 19 33 30 33 31 28 32 33 29 30 31 33 28 27 25 12 17 23 23 20 16 10 7 10 12 15 17 22 26 31 34
4 8 7 8 3 1 3 4 12 19 10 19 24 29 21 22 21 27 22 20 12 19 27 40 43 40 36 37 38 32 33 33 28 27 24 33 30 23 15 20 28 27 25 24 19 16 14 14 16 16 18 23 26 28
4 9 4 3 2 1 5 9 7 9 7 19 23 11 9 11 19 25 10 12 12 33 37 43 39 33 32 32 35 34 35 38 31 26 25 23 24 20 18 15 26 29 27 26 26 26 23 22 22 19 20 22 27 31
11 5 4 2 1 3 7 5 6 9 9 13 11 9 10 10 18 9 8 14 30 39 45 54 53 52 46 43 48 51 53 47 39 34 27 28 19 17 16 21 22 30 27 28 31 31 30 28 30 27 25 26 26 28
4 3 4 3 3 2 4 5 8 5 6 16 9 8 10 12 5 7 9 27 44 48 59 58 55 49 47 48 52 58 54 45 42 42 25 20 23 17 14 20 22 30 32 36 37 36 34 32 29 29 29 29 31 32
5 7 8 7 5 3 4 4 4 9 8 6 5 8 8 6 6 7 14 32 38 49 53 52 49 48 45 48 52 60 57 42 32 28 20 22 15 14 13 21 24 32 36 37 39 41 39 35 33 33 32 34 31 31
7 8 9 8 3 3 5 5 7 3 4 4 7 9 6 5 6 7 21 27 40 41 42 40 38 33 36 44 51 62 54 37 29 21 18 14 7 13 10 10 22 27 33 36 38 41 43 41 39 36 34 32 31 28
5 9 9 12 7 4 3 3 4 3 2 4 9 5 3 4 5 12 15 28 33 36 36 38 40 35 37 44 53 66 74 61 47 26 6 7 16 6 17 21 19 22 25 32 37 38 39 41 42 41 39 38 35 32
9 12 10 9 7 7 10 7 5 4 2 4 5 4 5 4 5 10 16 23 27 26 32 38 43 45 46 42 50 67 72 81 80 73 66 59 49 36 15 25 24 10 19 28 37 35 38 40 43 42 41 38 35 37
13 17 9 9 7 9 7 11 4 3 3 1 6 10 10 9 9 13 14 18 22 26 28 30 34 39 44 49 48 53 67 71 76 73 67 60 51 42 35 23 20 21 19 22 23 28 36 42 46 46 41 39 38 39
16 14 8 8 6 5 5 8 9 9 7 6 10 12 14 14 9 12 22 19 17 18 23 28 30 34 37 41 46 52 57 67 65 62 65 60 49 41 42 30 33 30 15 16 18 23 35 39 42 46 49 46 45 43
16 13 11 7 6 6 4 4 10 13 14 12 10 13 13 11 6 3 20 20 19 19 22 23 27 30 32 30 31 35 42 46 55 62 66 64 65 52 35 33 27 21 19 19 16 16 15 22 31 38 48 44 44 44
13 16 11 4 4 6 8 5 7 8 7 8 7 8 8 6 6 5 10 19 21 20 17 17 18 23 27 33 35 34 37 39 43 46 49 53 57 60 60 48 33 24 18 17 16 15 11 10 14 19 23 31 44 46
Wind_Direction_850mb
318 322 325 327 328 329 328 329 330 330 330 332 331 324 320 317 310 258 262 265 256 267 282 277 277 270 247 240 262 305 321 142 292 350 327 331 297 334 292 310 301 290 317 338 264 259 260 341 327 227 303 304 298 291
315 318 323 327 329 328 329 330 330 329 328 329 327 322 322 318 304 268 271 254 264 263 262 287 281 267 258 256 259 245 273 324 282 306 336 301 287 314 324 295 302 294 354 302 224 268 289 291 288 287 289 268 272 276
314 317 322 326 328 330 330 329 329 329 329 328 328 322 318 319 317 281 266 266 283 285 290 276 273 264 232 207 220 223 244 218 233 252 304 285 274 229 279 295 304 305 305 270 307 319 303 320 302 289 294 265 267 267
311 318 321 323 325 328 328 328 329 329 329 327 323 323 322 311 304 285 272 263 252 272 280 285 291 282 271 255 228 228 238 231 250 236 253 261 268 229 278 280 289 274 302 321 296 314 324 311 303 304 301 264 275 275
313 317 319 321 324 327 328 326 328 329 327 324 322 321 319 309 299 291 276 259 241 220 288 296 305 263 221 218 229 232 231 234 264 235 232 248 267 275 260 277 263 244 308 280 310 315 315 312 311 305 315 304 281 273
312 315 318 320 323 325 325 325 325 326 324 322 318 317 314 307 298 293 300 221 235 222 267 288 306 277 227 247 247 222 221 226 227 245 242 249 251 259 284 289 297 306 298 317 308 315 317 308 320 321 318 308 297 276
310 314 318 319 321 323 324 324 324 325 325 321 318 314 309 294 264 206 240 235 252 188 246 279 278 223 222 236 186 187 200 212 219 232 226 230 246 205 254 275 299 324 333 327 335 328 324 332 337 341 335 340 344 321
308 314 317 319 320 321 322 322 323 325 327 323 319 311 303 294 244 255 249 237 202 201 234 262 260 259 194 216 198 184 188 206 221 238 246 241 219 227 258 255 302 335 337 338 346 340 346 341 348 343 347 356 3 344
306 312 318 319 320 320 321 322 322 324 327 327 320 311 290 253 232 254 226 231 230 221 251 230 245 289 221 252 212 194 205 209 216 226 238 281 245 229 254 299 322 350 343 338 345 349 356 352 350 344 345 358 2 20
307 313 317 319 320 321 322 323 323 325 332 333 328 288 253 232 249 277 263 221 211 202 235 244 233 244 277 266 203 220 174 243 244 212 211 240 251 259 276 286 301 343 342 347 350 351 353 352 345 346 354 7 15 28
306 314 314 318 320 320 324 327 328 334 342 357 336 283 276 270 278 231 250 217 190 221 214 223 231 238 240 247 269 256 148 223 262 134 263 218 274 331 226 168 46 351 350 354 353 352 353 353 351 349 357 8 20 34
306 312 313 318 319 320 325 331 337 343 327 310 294 290 295 260 227 236 226 203 226 245 186 230 200 202 232 220 233 179 225 221 257 41 263 261 292 291 241 180 50 7 1 360 3 358 358 4 360 2 9 12 20 34
305 310 316 317 315 321 334 335 333 332 332 311 280 264 243 225 244 234 223 225 237 229 199 189 190 210 206 217 208 206 231 234 331 249 261 276 41 196 193 197 31 18 12 5 3 7 9 9 17 14 18 20 31 36
303 313 315 312 312 319 327 328 331 336 332 287 278 273 238 203 241 287 317 328 320 347 318 280 222 189 214 188 204 223 178 206 240 243 251 6 348 206 180 155 56 25 12 10 10 11 16 17 15 22 27 26 36 45
306 313 318 320 324 327 324 318 322 322 275 270 257 256 251 333 317 321 347 346 337 337 324 321 294 189 205 184 211 58 174 235 233 256 -0 12 323 198 173 177 24 20 15 13 13 16 15 17 24 27 31 28 40 52
311 317 320 325 328 328 323 320 325 294 263 277 265 290 313 320 328 320 330 331 321 319 299 276 271 239 211 117 159 200 190 215 328 303 342 343 309 253 160 182 106 48 52 33 18 21 21 24 24 28 34 36 36 48
320 320 326 330 337 338 336 7 33 35 295 262 270 294 282 292 306 313 320 318 322 304 277 274 299 320 38 69 248 244 244 29 331 344 329 335 269 247 237 197 233 283 64 67 44 25 25 32 41 39 35 32 38 46
343 322 332 341 350 358 3 27 4 292 270 281 301 320 317 306 297 302 308 312 321 314 315 333 311 271 260 262 336 9 19 5 347 340 330 332 322 227 223 220 217 238 87 78 59 50 40 41 40 39 40 36 42 53
333 349 343 349 354 9 8 355 351 299 286 314 306 322 319 314 299 288 290 301 293 283 298 289 264 315 357 21 355 342 348 355 322 317 312 316 294 262 220 213 203 216 218 97 50 45 50 60 63 57 49 55 56 59
106 343 326 328 333 81 329 301 301 280 285 315 312 329 328 313 316 305 296 294 271 236 234 288 15 353 342 340 325 313 317 321 318 312 327 324 330 313 216 201 197 198 188 166 117 77 60 54 52 66 69 70 75 72
163 320 333 70 81 101 282 314 279 288 306 304 322 329 328 327 338 15 3 336 58 28 11 6 346 331 327 330 334 327 319 317 316 314 307 304 295 311 275 194 191 194 187 187 171 144 83 77 70 70 78 78 77 81
310 4 88 52 80 3 283 288 294 304 292 299 321 339 336 337 346 13 17 50 57 23 7 349 340 334 332 337 339 331 320 320 320 319 305 304 291 284 266 211 199 201 196 185 177 165 147 130 118 111 100 91 90 92
80 107 82 54 57 315 298 321 293 328 304 325 327 335 352 0 336 359 75 41 22 1 355 356 355 358 352 343 341 341 342 334 323 316 313 306 293 282 263 224 217 205 201 186 173 166 158 156 141 132 124 107 100 95
119 104 137 155 0 327 322 303 310 304 299 329 339 353 347 336 327 32 61 25 359 1 -0 3 5 0 4 3 358 352 348 341 327 317 317 316 301 287 258 220 217 208 197 187 174 167 161 155 157 147 147 139 132 126
155 155 160 233 202 297 262 328 338 319 321 347 337 11 354 328 11 59 23 359 354 354 357 359 360 360 356 350 352 358 358 346 335 325 334 336 323 294 250 208 212 200 190 181 178 172 166 162 159 161 158 154 149 142
182 178 175 173 157 241 350 309 315 334 337 328 358 354 2 344 52 39 2 345 347 351 354 355 349 347 357 4 352 355 357 353 349 345 356 342 326 273 252 215 197 196 194 189 183 177 174 169 166 163 162 167 163 149
166 187 182 196 200 251 274 278 301 280 288 315 7 341 18 47 62 31 349 351 348 352 356 357 354 358 1 9 9 16 17 17 19 16 33 8 346 208 160 239 227 203 190 186 187 184 179 175 171 168 168 169 168 164
187 175 171 170 180 190 242 249 248 243 264 348 315 50 57 43 22 342 335 340 354 357 2 7 19 25 20 17 15 23 28 34 49 41 313 71 66 64 182 158 184 207 196 195 187 187 185 183 181 177 178 176 174 175
186 177 174 184 172 187 209 225 243 223 263 291 331 75 115 99 345 337 342 352 357 3 9 11 15 22 27 27 28 29 30 29 31 32 29 20 25 30 83 145 137 128 184 188 180 185 192 188 186 184 181 177 176 177
176 172 172 176 187 204 198 204 239 233 238 152 121 123 122 122 60 25 12 9 9 9 9 11 13 17 19 23 20 26 34 35 32 26 20 14 8 18 23 49 94 128 158 179 174 187 190 185 186 181 174 174 176 178
156 170 172 188 215 203 231 218 224 221 216 190 176 174 161 162 151 35 29 21 13 9 17 21 20 19 20 17 17 20 26 34 35 34 30 28 20 23 28 30 51 70 100 156 163 168 177 178 184 193 190 186 186 185
173 182 179 184 196 169 252 220 192 195 189 182 168 161 156 170 139 69 8 26 27 25 24 23 21 19 20 21 22 25 29 25 28 28 30 34 33 30 34 36 31 36 61 90 114 136 157 192 201 203 202 193 189 183
165 173 195 213 217 194 176 228 215 185 172 179 146 144 129 115 101 78 18 28 28 23 22 20 19 24 29 29 30 30 31 31 34 34 31 33 36 36 38 42 46 47 55 66 84 112 143 175 193 208 227 221 203 182